When you browse on this site, cookies collect data to enhance your experience and personalize the content and advertising you see.
Visit our Privacy Policy to learn more. By continuing to use the site, you agree to this use of cookies and data.
  • In Romania
  • List of Countries
  • For 7 days
  • Water Temperature
  • Satellite Maps
  • Weather Map
  • Weather Widgets
  • user-avatar
    Login

    Hourly Weather Lunel

    Today, 18 April, Thursday

    Time Temperature Precipitation Wind Pressure Humidity
    00:00 +12°C° 0 mm 1 mps 764 mmHg 89%
    01:00 +12°C° 0 mm 2 mps 764 mmHg 89%
    02:00 +10°C° 0 mm 2 mps 763 mmHg 89%
    03:00 +10°C° 0 mm 2 mps 763 mmHg 89%
    04:00 +10°C° 0 mm 2 mps 763 mmHg 87%
    05:00 +10°C° 0 mm 2 mps 763 mmHg 85%
    06:00 +12°C° 0 mm 2 mps 764 mmHg 81%
    07:00 +14°C° 0 mm 2 mps 763 mmHg 72%
    08:00 +16°C° 0 mm 2 mps 763 mmHg 62%
    09:00 +18°C° 0 mm 2 mps 763 mmHg 53%
    10:00 +19°C° 0 mm 3 mps 763 mmHg 49%
    11:00 +20°C° 0 mm 4 mps 763 mmHg 45%
    12:00 +22°C° 0 mm 6 mps 763 mmHg 41%
    13:00 +22°C° 0 mm 6 mps 763 mmHg 42%
    14:00 +21°C° 0 mm 7 mps 763 mmHg 43%
    15:00 +21°C° 0 mm 7 mps 763 mmHg 44%
    16:00 +20°C° 0 mm 6 mps 763 mmHg 49%
    17:00 +19°C° 0 mm 5 mps 764 mmHg 53%
    18:00 +18°C° 0 mm 4 mps 764 mmHg 58%
    19:00 +17°C° 0 mm 3 mps 764 mmHg 59%
    20:00 +16°C° 0 mm 2 mps 765 mmHg 60%
    21:00 +15°C° 0 mm 1 mps 765 mmHg 62%
    22:00 +15°C° 0 mm 2 mps 765 mmHg 61%
    23:00 +15°C° 0 mm 2 mps 765 mmHg 60%

    Tomorrow, 19 April, Friday

    Time Temperature Precipitation Wind Pressure Humidity
    00:00 +14°C° 0 mm 2 mps 765 mmHg 59%
    01:00 +14°C° 0 mm 2 mps 765 mmHg 59%
    02:00 +14°C° 0 mm 2 mps 765 mmHg 58%
    03:00 +13°C° 0 mm 2 mps 766 mmHg 58%
    04:00 +13°C° 0 mm 2 mps 766 mmHg 59%
    05:00 +14°C° 0 mm 2 mps 766 mmHg 61%
    06:00 +13°C° 0 mm 3 mps 767 mmHg 63%
    07:00 +16°C° 0 mm 3 mps 767 mmHg 55%
    08:00 +18°C° 0 mm 4 mps 767 mmHg 47%
    09:00 +21°C° 0 mm 5 mps 767 mmHg 39%
    10:00 +22°C° 0 mm 6 mps 767 mmHg 36%
    11:00 +22°C° 0 mm 6 mps 768 mmHg 33%
    12:00 +23°C° 0 mm 7 mps 768 mmHg 30%
    13:00 +23°C° 0 mm 7 mps 767 mmHg 32%
    14:00 +23°C° 0 mm 7 mps 767 mmHg 34%
    15:00 +22°C° 0 mm 6 mps 767 mmHg 36%
    16:00 +21°C° 0 mm 5 mps 767 mmHg 41%
    17:00 +20°C° 0 mm 4 mps 767 mmHg 46%
    18:00 +18°C° 0 mm 3 mps 767 mmHg 51%
    19:00 +17°C° 0 mm 3 mps 768 mmHg 54%
    20:00 +16°C° 0 mm 2 mps 768 mmHg 57%
    21:00 +15°C° 0 mm 1 mps 769 mmHg 60%
    22:00 +15°C° 0 mm 2 mps 769 mmHg 59%
    23:00 +14°C° 0 mm 2 mps 769 mmHg 59%

    Day after tomorrow, 20 April, Saturday

    Time Temperature Precipitation Wind Pressure Humidity
    00:00 +13°C° 0 mm 3 mps 768 mmHg 58%
    01:00 +13°C° 0 mm 3 mps 768 mmHg 57%
    02:00 +12°C° 0 mm 3 mps 768 mmHg 56%
    03:00 +12°C° 0 mm 3 mps 768 mmHg 55%
    04:00 +13°C° 0 mm 3 mps 768 mmHg 56%
    05:00 +13°C° 0 mm 3 mps 768 mmHg 57%
    06:00 +13°C° 0 mm 3 mps 767 mmHg 58%
    07:00 +16°C° 0 mm 2 mps 767 mmHg 52%
    08:00 +19°C° 0 mm 2 mps 767 mmHg 45%
    09:00 +21°C° 0 mm 2 mps 767 mmHg 39%
    10:00 +23°C° 0 mm 2 mps 766 mmHg 36%
    11:00 +24°C° 0 mm 2 mps 766 mmHg 34%
    12:00 +25°C° 0 mm 2 mps 766 mmHg 31%
    13:00 +24°C° 0 mm 3 mps 765 mmHg 33%
    14:00 +23°C° 0 mm 4 mps 765 mmHg 35%
    15:00 +22°C° 0 mm 5 mps 765 mmHg 36%
    16:00 +21°C° 0 mm 4 mps 765 mmHg 41%
    17:00 +19°C° 0 mm 4 mps 765 mmHg 46%
    18:00 +18°C° 0 mm 3 mps 765 mmHg 51%
    19:00 +17°C° 0 mm 2 mps 765 mmHg 52%
    20:00 +17°C° 0 mm 2 mps 765 mmHg 54%
    21:00 +16°C° 0 mm 1 mps 765 mmHg 55%
    22:00 +16°C° 0 mm 1 mps 765 mmHg 54%
    23:00 +16°C° 0 mm 1 mps 765 mmHg 54%

    21 April, Sunday

    Time Temperature Precipitation Wind Pressure Humidity
    00:00 +16°C° 0 mm 1 mps 765 mmHg 53%
    01:00 +15°C° 0 mm 1 mps 765 mmHg 53%
    02:00 +15°C° 0 mm 1 mps 764 mmHg 53%
    03:00 +15°C° 0 mm 1 mps 764 mmHg 53%
    04:00 +15°C° 0 mm 1 mps 763 mmHg 54%
    05:00 +15°C° 0 mm 2 mps 763 mmHg 55%
    06:00 +16°C° 0 mm 2 mps 763 mmHg 55%
    07:00 +17°C° 0 mm 2 mps 763 mmHg 51%
    08:00 +18°C° 0 mm 3 mps 763 mmHg 47%
    09:00 +20°C° 0 mm 3 mps 762 mmHg 42%
    10:00 +20°C° 0.1 mm 3 mps 762 mmHg 46%
    11:00 +20°C° 0.1 mm 4 mps 762 mmHg 49%
    12:00 +19°C° 0.1 mm 4 mps 762 mmHg 52%
    13:00 +19°C° 0.1 mm 3 mps 762 mmHg 52%
    14:00 +18°C° 0.1 mm 2 mps 761 mmHg 53%
    15:00 +19°C° 0.1 mm 1 mps 761 mmHg 54%
    16:00 +19°C° 0 mm 1 mps 761 mmHg 54%
    17:00 +18°C° 0 mm 1 mps 761 mmHg 55%
    18:00 +18°C° 0 mm 1 mps 761 mmHg 56%
    19:00 +18°C° 0 mm 1 mps 761 mmHg 57%
    20:00 +16°C° 0 mm 2 mps 761 mmHg 59%
    21:00 +15°C° 0 mm 2 mps 761 mmHg 60%
    22:00 +15°C° 0 mm 2 mps 760 mmHg 60%
    23:00 +14°C° 0 mm 3 mps 760 mmHg 60%

    22 April, Monday

    Time Temperature Precipitation Wind Pressure Humidity
    00:00 +14°C° 0 mm 3 mps 759 mmHg 60%
    01:00 +14°C° 0 mm 4 mps 759 mmHg 58%
    02:00 +14°C° 0 mm 4 mps 758 mmHg 56%
    03:00 +14°C° 0 mm 4 mps 757 mmHg 54%
    04:00 +14°C° 0 mm 4 mps 757 mmHg 55%
    05:00 +14°C° 0 mm 4 mps 757 mmHg 56%
    06:00 +13°C° 0 mm 3 mps 756 mmHg 56%
    07:00 +15°C° 0 mm 4 mps 756 mmHg 51%
    08:00 +18°C° 0 mm 4 mps 756 mmHg 46%
    09:00 +20°C° 0 mm 4 mps 755 mmHg 41%
    10:00 +22°C° 0 mm 4 mps 755 mmHg 37%
    11:00 +24°C° 0 mm 3 mps 754 mmHg 32%
    12:00 +25°C° 0 mm 2 mps 754 mmHg 28%
    13:00 +24°C° 0 mm 3 mps 753 mmHg 33%
    14:00 +21°C° 0 mm 5 mps 753 mmHg 38%
    15:00 +20°C° 0 mm 6 mps 752 mmHg 43%
    16:00 +19°C° 0.1 mm 6 mps 753 mmHg 47%
    17:00 +17°C° 0.1 mm 5 mps 753 mmHg 52%
    18:00 +17°C° 0.1 mm 4 mps 753 mmHg 56%
    19:00 +15°C° 0 mm 4 mps 753 mmHg 58%
    20:00 +16°C° 0 mm 3 mps 753 mmHg 59%
    21:00 +16°C° 0 mm 3 mps 753 mmHg 61%
    22:00 +16°C° 0.1 mm 3 mps 753 mmHg 63%
    23:00 +14°C° 0.1 mm 3 mps 753 mmHg 65%

    23 April, Tuesday

    Time Temperature Precipitation Wind Pressure Humidity
    00:00 +15°C° 0.1 mm 2 mps 752 mmHg 67%
    01:00 +15°C° 0 mm 2 mps 752 mmHg 67%
    02:00 +15°C° 0 mm 1 mps 752 mmHg 68%
    03:00 +15°C° 0 mm 1 mps 752 mmHg 68%
    04:00 +15°C° 0 mm 1 mps 752 mmHg 68%
    05:00 +15°C° 0 mm 1 mps 752 mmHg 68%
    06:00 +15°C° 0 mm 1 mps 752 mmHg 68%
    07:00 +18°C° 0 mm 1 mps 752 mmHg 62%
    08:00 +18°C° 0 mm 2 mps 752 mmHg 56%
    09:00 +20°C° 0 mm 2 mps 752 mmHg 50%
    10:00 +20°C° 0 mm 3 mps 752 mmHg 50%
    11:00 +20°C° 0 mm 4 mps 752 mmHg 51%
    12:00 +20°C° 0 mm 5 mps 752 mmHg 52%
    13:00 +20°C° 0 mm 5 mps 752 mmHg 51%
    14:00 +20°C° 0 mm 5 mps 752 mmHg 51%
    15:00 +21°C° 0 mm 5 mps 752 mmHg 50%
    16:00 +19°C° 0 mm 4 mps 753 mmHg 56%
    17:00 +18°C° 0 mm 4 mps 753 mmHg 63%
    18:00 +17°C° 0 mm 3 mps 753 mmHg 69%
    19:00 +16°C° 0 mm 2 mps 754 mmHg 75%
    20:00 +15°C° 0 mm 2 mps 755 mmHg 80%
    21:00 +14°C° 0 mm 1 mps 756 mmHg 86%
    22:00 +14°C° 0 mm 1 mps 757 mmHg 87%
    23:00 +14°C° 0 mm 1 mps 757 mmHg 89%
    Show more